Flag for Singapore

Past Weather in Singapore, Singapore — Yesterday and Last 2 Weeks

Now
82 °F

Light rain. Partly sunny.


Feels Like: 89 °F
Forecast: 87 / 78 °F
Wind: 3 mph from Southeast

Location: Singapore / Paya Lebar

Current Time: Jul 10, 2020 at 3:30:54 pm

Latest Report: Jul 10, 2020 at 3:00 pm


Visibility: N/A

Pressure: 29.80 "Hg

Humidity: 79%

Dew Point: 75 °F

Location of SingaporeLocation

Past Weather in Singapore — Graph

°F

Singapore Temperature Yesterday

Maximum temperature yesterday: 82 °F (at 3:00 pm)
Minimum temperature yesterday: 77 °F (at 3:00 am)
Average temperature yesterday: 79 °F

High & Low Weather Summary for the Past Weeks

 TemperatureHumidityPressure
High90 °F (Jun 26, 1:00 pm)94% (Jul 7, 8:00 am)29.86 "Hg (Jul 7, 8:00 am)
Low77 °F (Jul 9, 3:00 am)55% (Jul 3, 4:00 pm)29.71 "Hg (Jun 25, 5:00 pm)
Average84 °F78%29.79 "Hg
* Reported Jun 25 2:00 pm — Jul 10 2:00 pm, Singapore. Weather by CustomWeather, © 2020

Note: Actual official high and low records may vary slightly from our data, if they occured in-between our weather recording intervals... More about our weather records

Singapore Weather History for the Previous 24 Hours

Scroll right to see more
 ConditionsComfort  
Time TempWeatherWind HumidityBarometerVisibility
2:00 pm
Fri, Jul 10
84 °FLight rain. Partly sunny.7 mph74%29.83 "HgN/A
1:05 pm86 °FThunderstorms. Partly sunny.7 mph66%29.83 "HgN/A
1:00 pm86 °FPartly sunny.5 mph66%29.83 "HgN/A
12:00 pm86 °FPartly sunny.5 mph70%29.86 "HgN/A
11:00 am84 °FPartly sunny.No wind70%29.86 "HgN/A
10:00 am81 °FBroken clouds.3 mph79%29.86 "HgN/A
9:00 am79 °FLight rain. Scattered clouds.1 mph89%29.86 "Hg5 mi
8:00 am79 °FLight rain. Partly sunny.No wind89%29.83 "Hg5 mi
7:00 am77 °FPassing clouds.2 mph89%29.80 "HgN/A
6:00 am79 °FLight rain. Passing clouds.6 mph84%29.80 "HgN/A
5:00 am79 °FPassing clouds.1 mph84%29.80 "HgN/A
4:00 am79 °FPassing clouds.No wind84%29.77 "HgN/A
3:00 am79 °FPassing clouds.No wind84%29.77 "HgN/A
2:00 am79 °FPartly cloudy.No wind84%29.80 "HgN/A
1:00 am79 °FPassing clouds.5 mph84%29.83 "HgN/A
12:00 am79 °FLight rain. Passing clouds.7 mph84%29.83 "HgN/A
11:00 pm
Thu, Jul 9
81 °FLight rain. Passing clouds.7 mph84%29.83 "HgN/A
10:00 pm81 °FLight rain. Passing clouds.8 mph84%29.83 "HgN/A
9:00 pm81 °FLight rain. Passing clouds.7 mph84%29.80 "HgN/A
8:00 pm81 °FLight rain. Passing clouds.7 mph89%29.77 "HgN/A
7:00 pm81 °FLight rain. Partly sunny.5 mph84%29.74 "HgN/A
6:00 pm81 °FLight rain. Partly sunny.3 mph84%29.74 "Hg6 mi
5:00 pm82 °FLight rain. Scattered clouds.6 mph79%29.74 "HgN/A
4:00 pm82 °FLight rain. Broken clouds.8 mph79%29.74 "HgN/A
3:00 pm82 °FBroken clouds.8 mph79%29.77 "HgN/A
Weather by CustomWeather, © 2020

See weather overview